Regional Weather Roundup
Issued by NWS Goodland, KS

Home | Current Version | Previous Version | Graphics & Text | Print | Product List | Glossary On
Versions: 1 2 3 4 5 6 7 8 9 10 11 12 13 14 15 16 17 18 19 20 21 22 23 24 25 26 27 28 29 30 31 32 33 34 35 36 37 38 39 40 41 42 43 44 45 46 47 48 49 50
000
ASUS43 KGLD 252308
RWRGLD

GOODLAND FORECAST AREA HOURLY WEATHER ROUNDUP
NATIONAL WEATHER SERVICE GOODLAND KS
500 PM MDT MON MAY 25 2015

...OFFICIAL OBSERVATIONS...

CITY           SKY/WX    TMP DP  RH WIND       PRES   REMARKS
GOODLAND KS    SUNNY     69  47  45 NW17      29.84F
HILL CITY KS   MOSUNNY   76  52  43 W8        29.77S
IMPERIAL NEB   MOSUNNY   62  49  62 NW15G22   29.82S
MCCOOK NEB     SUNNY     71  50  47 W17G25    29.77F
AKRON CO       CLOUDY    58  46  64 N15       29.90F
BURLINGTON CO  MOSUNNY   67  43  41 NW8G18    29.88F
LIMON CO       PTSUNNY   61  38  42 CALM      29.92S
$$

...UNOFFICIAL OBSERVATIONS...

CITY           SKY/WX    TMP DP  RH WIND       PRES   REMARKS
COLBY KS       SUNNY     72  54  53 W16G24    29.84R
GOVE KS          N/A     75  32  20 MISG        N/A
LENORA KS        N/A     73  32  22 MISG        N/A
NORTON KS      SUNNY     75  43  31 SW14      29.76R
SHARON SPRINGS   N/A     71  51  48 MISG        N/A
KIT CARSON CO    N/A     65  46  50 MISG        N/A
$$



USA.gov is the U.S. government's official web portal to all federal, state and local government web resources and services.